This demonstration page uses our WeatherBlox Daily Observations layout. Learn more.

Left ArrowRight Arrow

38.88101, -77.10428

Hourly Observations for April 21, 2021

Temp ( °F °C ) Dew Point ( °F °C ) Humidity (%) Winds ( mph kmh ) Pressure ( in mb ) Visibility ( mi km ) Precip ( " mm )
12:52 am 00:52 Mostly Clear 62 16.7 44 6.7 52 52 S 14 22 29.83 1010 10 16.0934 0 0
1:52 am 01:52 Mostly Clear 61 16.1 45 7.2 56 56 S 15 24 29.81 1009 10 16.0934 0 0
2:52 am 02:52 Mostly Clear 60 15.6 44 6.7 56 56 S 14 22 29.78 1009 10 16.0934 0 0
3:52 am 03:52 Partly Cloudy 60 15.6 43 6.1 53 53 SSW 14 22 29.76 1008 10 16.0934 0 0
4:52 am 04:52 Partly Cloudy 60 15.6 44 6.7 56 56 S 15 24 29.74 1007 10 16.0934 0 0
5:52 am 05:52 Partly Cloudy 58 14.4 44 6.7 60 60 S 15 24 29.72 1007 10 16.0934 0 0
6:52 am 06:52 Mostly Sunny 58 14.4 46 7.8 65 65 S 14 22 29.72 1006 10 16.0934 0 0
7:52 am 07:52 Partly Cloudy 60 15.6 47 8.3 62 62 S 14 22 29.71 1006 10 16.0934 0 0
8:52 am 08:52 Mostly Cloudy 63 17.2 48 8.9 58 58 SSW 16 26 29.69 1005 10 16.0934 0 0
9:52 am 09:52 Cloudy 64 17.8 49 9.4 58 58 SSW 14 22 29.67 1005 10 16.0934 0 0
10:52 am 10:52 Cloudy 65 18.3 49 9.4 56 56 SSW 14 22 29.66 1005 10 16.0934 0 0
11:31 am 11:31 Mostly Cloudy 67 19.4 48 8.9 51 51 WNW 15 24 29.68 1005 10 16.0934 0 0
11:52 am 11:52 Mostly Cloudy 64 17.8 42 5.6 45 45 NW 25 41 29.68 1005 10 16.0934 0 0
12:34 pm 12:34 Cloudy 56 13.3 37 2.8 49 49 NNW 25 41 29.71 1006 10 16.0934 0.001 0.001
12:52 pm 12:52 Mostly Cloudy with Light Rain 54 12.2 36 2.2 51 51 NW 17 28 29.73 1007 10 16.0934 0.001 0.001
1:52 pm 13:52 Cloudy 54 12.2 31 -0.6 42 42 NW 23 37 29.75 1008 10 16.0934 0.001 0.001
2:52 pm 14:52 Partly Cloudy 58 14.4 32 0 38 38 NW 32 52 29.75 1008 10 16.0934 0 0
3:52 pm 15:52 Partly Cloudy 56 13.3 28 -2.2 34 34 NW 29 46 29.77 1008 10 16.0934 0 0
4:52 pm 16:52 Mostly Cloudy 53 11.7 26 -3.3 35 35 NNW 29 46 29.8 1009 10 16.0934 0 0
5:52 pm 17:52 Partly Cloudy 51 10.6 23 -5 33 33 WNW 24 39 29.83 1010 10 16.0934 0 0
6:52 pm 18:52 Mostly Sunny 50 10 21 -6.1 32 32 NW 23 37 29.86 1011 10 16.0934 0 0
7:52 pm 19:52 Mostly Clear 47 8.3 20 -6.7 34 34 NW 18 30 29.88 1012 10 16.0934 0 0
8:52 pm 20:52 Mostly Clear 45 7.2 21 -6.1 39 39 NNW 9 15 29.91 1013 10 16.0934 0 0
9:52 pm 21:52 Mostly Clear 44 6.7 20 -6.7 38 38 NNW 15 24 29.94 1014 10 16.0934 0 0
10:52 pm 22:52 Mostly Clear 43 6.1 21 -6.1 42 42 WNW 9 15 29.95 1014 10 16.0934 0 0
11:52 pm 23:52 Mostly Clear 42 5.6 20 -6.7 41 41 NW 16 26 29.96 1015 10 16.0934 0 0

Powered by AerisWeather